sat.trackr.live / text

‹ back to catalog

STARLINK-35103

NORAD 65633 · 2025-210M

PAYLOAD ACTIVE UNKNOWN

§ Identity

Operator
Country
US
Launch date
2025-09-18
Launch site
AFETR
Launch vehicle
Mass (kg)
RCS (m²)

Purposes: comms

External: N2YO · Heavens-Above · Gunter

§ Orbital elements

Epoch: 2026-05-24T18:29:17.488320Z

Period
93.85 min
Inclination
53.1599°
Eccentricity
0.0000901
Mean motion
15.34405801 rev/d
Perigee alt
462.1 km
Apogee alt
463.3 km
Semi-major
6,840.8 km
B*
8.9295e-4
RAAN
312.6824°
Arg perigee
87.6327°
Mean anomaly
272.4778°
Rev number
3,939

§ Raw data

STARLINK-351031 65633U 25210M   26144.77034130  .00029919  00000+0  89295-3 0  99902 65633  53.1599 312.6824 0000901  87.6327 272.4778 15.34405801 39398

JSON: /api/v1/satellites/65633 · /tle

For live sub-satellite position, see the globe view (requires WebGL).

§ Visibility from observer

Set your observer location to see the next 7 days of passes ≥ 10°. The values pass through the URL so the page stays shareable.

No JS? Fill the form by hand. The geolocation button needs JavaScript.